Theta_e
302 300 299 299 299 297 297 297 297 296 297 297 299 299 299 300 302 305 306 306 307 307 308 308 307 306 306
299 298 298 298 297 295 295 295 294 293 294 293 294 296 297 297 298 299 300 301 301 302 303 304 304 304 304
299 298 297 296 295 294 294 293 292 292 291 290 290 291 292 294 295 296 296 296 297 298 298 299 300 300 301
298 296 296 295 294 292 291 290 290 290 289 288 288 288 288 288 289 290 293 294 295 295 295 295 295 295 296
297 296 295 294 293 290 289 287 287 287 287 286 285 286 286 287 286 286 286 286 289 292 293 293 294 294 294
296 295 293 292 290 288 287 287 286 287 285 285 286 285 286 286 286 286 286 286 285 285 285 286 289 290 291
294 293 291 289 288 287 286 286 286 285 285 284 286 286 286 286 286 287 286 286 286 287 288 288 289 290 290
289 288 288 288 287 286 286 285 285 285 284 284 285 285 285 286 287 286 286 287 287 287 287 287 287 289 290
286 286 286 285 284 285 285 285 284 284 284 285 284 285 286 286 286 286 286 287 287 287 287 288 288 288 288
284 283 282 282 282 282 282 284 284 284 284 285 284 284 285 286 286 286 286 285 286 286 286 286 286 286 286
284 283 282 282 282 282 282 282 282 283 284 284 284 283 283 283 284 284 285 285 284 284 284 284 284 285 285
283 282 281 282 282 283 283 283 283 283 283 283 283 282 282 281 281 283 284 283 283 282 282 283 283 283 284
282 282 282 282 282 283 283 283 283 282 282 282 282 282 282 281 281 281 280 282 282 283 282 283 284 284 284
282 281 282 282 283 283 282 282 282 282 282 282 281 282 282 282 282 281 281 281 282 282 282 283 283 283 283
281 281 282 283 283 282 282 282 282 282 282 282 280 280 281 281 281 281 281 281 281 281 281 281 282 283 282
281 281 281 281 282 282 282 281 281 282 281 281 279 280 280 280 281 281 280 281 281 281 281 280 280 281 281
281 281 281 281 281 281 281 281 281 281 280 279 279 279 275 277 280 280 281 281 281 280 280 280 280 280 280
Wind_Speed
7 8 5 4 5 4 3 1 1 2 1 2 4 4 4 4 4 5 5 6 8 8 7 7 5 3 5
8 7 6 2 4 2 1 2 3 4 4 3 3 3 3 4 3 2 1 1 1 2 3 3 3 4 3
7 7 5 2 3 4 4 3 3 2 2 3 3 3 3 2 4 3 3 4 2 2 3 5 6 6 6
7 8 5 5 3 4 3 2 4 3 3 4 4 3 2 2 2 2 1 1 1 2 2 2 3 5 5
7 5 6 6 7 5 3 2 5 2 3 5 4 4 2 1 2 4 4 5 5 5 5 5 5 6 7
6 6 6 6 6 4 3 2 2 3 6 1 1 1 1 1 1 4 4 3 3 4 5 7 8 8 8
11 9 9 9 7 6 4 3 2 3 5 1 0 0 1 3 2 3 5 1 0 1 2 2 3 3 4
6 7 6 6 6 4 4 2 1 1 2 1 2 2 4 1 4 1 2 3 4 4 3 3 3 3 4
3 4 4 4 5 5 4 2 2 3 2 1 2 4 1 3 5 3 2 1 2 3 3 3 4 5 6
5 5 4 5 5 4 5 6 4 3 4 1 1 4 2 4 4 5 5 3 3 3 5 6 8 9 10
7 6 6 6 5 4 4 4 5 4 3 1 2 2 3 4 5 6 4 3 7 9 8 7 7 8 11
7 7 7 6 5 5 3 2 3 5 6 6 4 4 4 4 5 3 6 13 10 10 13 3 11 16 14
8 7 7 6 6 6 5 6 8 5 6 9 8 9 9 8 7 11 10 7 12 5 8 21 17 14 14
9 8 8 9 8 6 6 5 6 5 6 5 7 10 13 16 16 20 18 11 11 20 18 17 16 15 15
11 10 9 9 10 9 9 8 8 6 8 7 9 11 13 15 19 22 22 22 20 18 18 20 21 17 17
13 13 12 13 12 11 11 12 12 12 13 13 11 9 11 13 17 23 21 20 17 17 17 19 28 24 22
14 14 14 13 13 13 13 13 14 14 14 12 11 9 2 3 10 14 18 17 16 22 25 23 27 32 27
Wind_Direction
161 180 193 270 304 314 265 215 238 343 268 305 298 336 9 33 34 77 96 100 105 94 127 151 143 170 221
169 172 213 318 299 219 141 89 106 71 355 3 321 300 332 15 341 340 52 100 81 108 140 161 197 212 208
161 178 187 170 223 190 163 153 196 206 303 308 351 17 27 345 320 357 64 79 107 222 234 234 231 230 229
159 165 172 165 200 186 189 219 252 262 295 291 297 317 4 347 334 332 306 264 208 191 205 225 248 267 254
168 173 175 179 201 191 205 257 261 283 320 299 283 277 284 243 292 309 293 276 263 254 249 246 247 253 254
204 197 190 213 191 201 203 112 273 270 339 315 43 67 107 86 13 347 339 318 301 277 258 255 256 258 262
223 215 201 200 193 200 213 159 231 309 320 212 323 45 256 270 276 323 339 11 271 339 354 331 311 302 287
216 213 200 192 202 197 184 142 278 227 325 264 290 297 308 191 147 309 106 66 38 7 347 338 324 306 277
197 203 197 210 220 217 201 180 180 196 243 306 302 331 318 161 178 175 188 312 355 350 346 3 339 320 278
201 198 203 192 213 222 206 189 183 205 210 348 304 356 292 213 210 251 275 243 269 280 288 298 302 301 295
223 224 217 206 199 176 181 212 220 227 216 277 256 321 330 309 282 262 246 235 302 299 284 287 296 306 296
223 225 221 211 201 191 212 253 254 254 248 257 277 272 287 286 271 289 267 294 294 284 293 254 298 295 284
228 237 236 223 207 224 250 272 283 279 247 253 260 269 265 248 275 285 315 301 302 169 307 308 304 305 300
236 238 233 223 223 237 260 242 254 255 238 236 268 270 271 271 274 278 284 280 274 295 306 300 294 293 295
232 230 228 225 228 242 246 238 245 249 267 277 288 276 273 274 275 275 281 283 294 304 311 308 298 300 296
233 236 240 236 238 241 243 246 252 262 273 287 291 284 288 283 265 270 275 280 296 306 305 299 300 303 302
239 237 238 240 235 242 248 250 256 262 269 277 275 264 232 262 280 267 267 289 299 294 294 288 287 296 301